Weather in Oleksandropil

Ukraine / Dnipropetrovsk Region     48°00′45″N   34°26′33″E
temp.,
°C
wind,
m/s
gust,
m/s
humid.,
%
clouds,
%
prec.,
mm/h
press.,
hPa
HPBL,
m
8 march, mon
mon823:00−1sw714710 0.0 1017425
02:00−1wsw7147523 0.0 1015432
05:00−2sw6129195 0.0 1014322
08:000wsw6117896 0.0 1013418
11:00+4wsw8125813 0.0 10131363
14:00+5w8125932 0.0 10111606
17:00+2wnw597990 0.0 1012392
20:00−1wnw4108795 0.0 1013284
9 march, tue
tue923:00−2wnw379290 0.0 1014173
02:00−3wnw5108567 0.0 1015429
05:00−4nw610810 0.0 1016493
08:00−3nw79650 0.0 1018782
11:00−1nw67530 0.0 10191252
14:000nw675239 0.0 10201441
17:00−2nw585965 0.0 10201067
20:00−4nw486933 0.0 1023410
10 march, wed
wed1023:00−4n367148 0.0 1025542
02:00−5n466925 0.0 1026557
05:00−5nne35660 0.0 1026527
08:00−4nne45586 0.0 1027635
11:00−2ne333991 0.0 10271003
14:00−1ne333496 0.0 10261153
17:00−2ne354299 0.0 1025642
20:00−3ne365098 0.0 1026220
11 march, thu
thu1123:00−3ene474899 0.0 1026387
02:00−4ene475064 0.0 1027333
05:00−4ene47510 0.0 1027327
08:00−3e574537 0.0 1028582
11:000e453745 0.0 10281060
14:00+1ene443854 0.0 10281422
17:00−1ene45480 0.0 1027541
20:00−3e48580 0.0 1028360
12 march, fri
fri1223:00−4ese47500 0.0 1029480
02:00−5ese35390 0.0 1030437
05:00−5ese34360 0.0 1030445
08:00−5se453539 0.0 1031565
11:00−3se562997 0.0 1030768
14:00−1sse562680 0.0 1029876
17:00−1sse583159 0.0 1028832
20:00−4sse8125479 0.0 1028570